Aérodrome :
LOGIN :

S'inscrire | Disclaimer

   EN    FR    IT 

 










Légende :    VFR   VFR Marginal   IFR   IFR Intensif   IFR Très Intensif
Visi : 
Plafond : 
>= 8 km
>= 3000ft
5 à 8 km
1000 à 3000 ft
1500m à 5 km
500 à 1000 ft
800 à 1500m
200 à 500 ft
< 800m
< 200 ft
Symboles :   Orages  Brouillard  Fortes neiges  Fortes précipitations  Vent > 20 kt
SIGMETs :   Divers  Orages  Givrage  Turbulence  Onde Orograph.  Cendres Volcan.







- Altitude de l'aérodrome : 1161 ft
- Code IATA : RJL


LELO - Logroño-Agoncillo

DERNIER METAR :
  • 240730Z 30007KT 240V010 9999 BKN052 19/14 Q1028

METARs EXPIRÉS :
  • 240700Z VRB05KT 9999 BKN052 19/14 Q1028
  • 240630Z 30005KT 250V360 9999 BKN052 19/14 Q1028
  • 240600Z VRB03KT 9999 BKN052 19/15 Q1027
  • 240530Z VRB04KT 9999 BKN052 19/15 Q1027
  • 240500Z 30006KT 230V360 9999 BKN038 20/15 Q1027

TAF TAF LELO
Valide du 24 à 06h jusqu'au 24 à 15h UTC


240500Z 2406/2415 28009KT 9999 BKN020
Pas de NOTAMs connus pour ce terrain.



MET'MAP, la Météo Aéronautique d'un coup d'oeil ! - Copyright ORBIFLY Décembre 2007 - Disclaimer

ORBIFLY MET'MAP TEAM :

Programmation & Développement : Alexandra Zaïnal
Conception & Développement : Baudouin d'Aumeries
Co-Programmation & Développement : Marc-Olivier Méhu
Soutien technique & logistique : Manuel Goepfert

Contact : metmap@orbifly.com




SOURCES & CREDITS :

   NOAA